Time,TemperatureF,DewpointF,PressureIn,WindDirection,WindDirectionDegrees,WindSpeedMPH,WindSpeedGustMPH,Humidity,HourlyPrecipIn,Conditions,Clouds,dailyrainin,SoftwareType,DateUTC
2013-02-26 00:00:00,40.0,-99.9,-100.00,West,263,8.0,15.0,-999,-99.99,,,-99.99,,2013-02-26 08:00:00,
2013-02-26 00:02:00,40.0,-99.9,-100.00,West,273,11.0,11.0,-999,-99.99,,,-99.99,,2013-02-26 08:02:00,
2013-02-26 00:11:00,40.0,-99.9,-100.00,West,273,11.0,11.0,-999,-99.99,,,-99.99,,2013-02-26 08:11:00,
2013-02-26 00:22:00,40.0,-99.9,-100.00,West,273,11.0,11.0,-999,-99.99,,,-99.99,,2013-02-26 08:22:00,
2013-02-26 00:32:00,41.0,-99.9,-100.00,West,265,8.0,15.0,-999,-99.99,,,-99.99,,2013-02-26 08:32:00,
2013-02-26 00:42:00,41.0,-99.9,-100.00,West,265,8.0,15.0,-999,-99.99,,,-99.99,,2013-02-26 08:42:00,
2013-02-26 00:52:00,40.0,-99.9,-100.00,West,263,8.0,15.0,-999,-99.99,,,-99.99,,2013-02-26 08:52:00,
2013-02-26 01:32:00,40.0,-99.9,-100.00,WSW,245,6.0,12.0,-999,-99.99,,,-99.99,,2013-02-26 09:32:00,
2013-02-26 01:43:00,40.0,-99.9,-100.00,WSW,245,6.0,12.0,-999,-99.99,,,-99.99,,2013-02-26 09:43:00,
2013-02-26 01:52:00,40.0,-99.9,-100.00,WSW,245,6.0,12.0,-999,-99.99,,,-99.99,,2013-02-26 09:52:00,
2013-02-26 02:32:00,40.0,-99.9,-100.00,West,264,11.0,13.0,-999,-99.99,,,-99.99,,2013-02-26 10:32:00,
2013-02-26 02:42:00,40.0,-99.9,-100.00,West,264,11.0,13.0,-999,-99.99,,,-99.99,,2013-02-26 10:42:00,
2013-02-26 02:52:00,40.0,-99.9,-100.00,West,264,11.0,13.0,-999,-99.99,,,-99.99,,2013-02-26 10:52:00,
2013-02-26 03:53:00,40.0,-99.9,-100.00,WNW,289,11.0,16.0,-999,-99.99,,,-99.99,,2013-02-26 11:53:00,
2013-02-26 04:00:00,40.0,-99.9,-100.00,West,273,5.0,13.0,-999,-99.99,,,-99.99,,2013-02-26 12:00:00,
2013-02-26 04:02:00,40.0,-99.9,-100.00,West,280,9.0,13.0,-999,-99.99,,,-99.99,,2013-02-26 12:02:00,
2013-02-26 04:11:00,40.0,-99.9,-100.00,West,280,9.0,13.0,-999,-99.99,,,-99.99,,2013-02-26 12:11:00,
2013-02-26 04:22:00,40.0,-99.9,-100.00,West,280,9.0,13.0,-999,-99.99,,,-99.99,,2013-02-26 12:22:00,
2013-02-26 04:33:00,39.0,-99.9,-100.00,West,261,8.0,12.0,-999,-99.99,,,-99.99,,2013-02-26 12:33:00,
2013-02-26 04:42:00,39.0,-99.9,-100.00,West,261,8.0,12.0,-999,-99.99,,,-99.99,,2013-02-26 12:42:00,
2013-02-26 04:53:00,40.0,-99.9,-100.00,West,273,5.0,13.0,-999,-99.99,,,-99.99,,2013-02-26 12:53:00,
2013-02-26 05:32:00,40.0,-99.9,-100.00,West,280,7.0,11.0,-999,-99.99,,,-99.99,,2013-02-26 13:32:00,
2013-02-26 05:42:00,40.0,-99.9,-100.00,West,280,7.0,11.0,-999,-99.99,,,-99.99,,2013-02-26 13:42:00,
2013-02-26 05:52:00,40.0,-99.9,-100.00,West,280,7.0,11.0,-999,-99.99,,,-99.99,,2013-02-26 13:52:00,
2013-02-26 06:10:00,40.0,-99.9,-100.00,West,278,8.0,10.0,-999,-99.99,,,-99.99,,2013-02-26 14:10:00,
2013-02-26 06:22:00,41.0,-99.9,-100.00,WNW,285,4.0,9.0,-999,-99.99,,,-99.99,,2013-02-26 14:22:00,
2013-02-26 06:32:00,39.0,-99.9,-100.00,West,275,3.0,13.0,-999,-99.99,,,-99.99,,2013-02-26 14:32:00,
2013-02-26 06:42:00,39.0,-99.9,-100.00,West,275,3.0,13.0,-999,-99.99,,,-99.99,,2013-02-26 14:42:00,
2013-02-26 06:52:00,40.0,-99.9,-100.00,West,278,8.0,10.0,-999,-99.99,,,-99.99,,2013-02-26 14:52:00,
2013-02-26 07:02:00,40.0,-99.9,-100.00,West,278,8.0,10.0,-999,-99.99,,,-99.99,,2013-02-26 15:02:00,
2013-02-26 07:32:00,40.0,-99.9,-100.00,WNW,283,5.0,6.0,-999,-99.99,,,-99.99,,2013-02-26 15:32:00,
2013-02-26 07:42:00,40.0,-99.9,-100.00,WNW,283,5.0,6.0,-999,-99.99,,,-99.99,,2013-02-26 15:42:00,
2013-02-26 07:52:00,40.0,-99.9,-100.00,WNW,283,5.0,6.0,-999,-99.99,,,-99.99,,2013-02-26 15:52:00,
2013-02-26 08:02:00,41.0,-99.9,-100.00,West,262,2.0,4.0,-999,-99.99,,,-99.99,,2013-02-26 16:02:00,
2013-02-26 08:11:00,41.0,-99.9,-100.00,West,262,2.0,4.0,-999,-99.99,,,-99.99,,2013-02-26 16:11:00,
2013-02-26 08:32:00,41.0,-99.9,-100.00,West,278,6.0,9.0,-999,-99.99,,,-99.99,,2013-02-26 16:32:00,
2013-02-26 08:42:00,41.0,-99.9,-100.00,West,278,6.0,9.0,-999,-99.99,,,-99.99,,2013-02-26 16:42:00,
2013-02-26 08:52:00,41.0,-99.9,-100.00,West,278,6.0,9.0,-999,-99.99,,,-99.99,,2013-02-26 16:52:00,
2013-02-26 09:02:00,41.0,-99.9,-100.00,WNW,283,6.0,6.0,-999,-99.99,,,-99.99,,2013-02-26 17:02:00,
2013-02-26 09:11:00,41.0,-99.9,-100.00,WNW,283,6.0,6.0,-999,-99.99,,,-99.99,,2013-02-26 17:11:00,
2013-02-26 09:22:00,43.0,-99.9,-100.00,West,272,4.0,7.0,-999,-99.99,,,-99.99,,2013-02-26 17:22:00,
2013-02-26 09:32:00,42.0,-99.9,-100.00,WNW,293,5.0,8.0,-999,-99.99,,,-99.99,,2013-02-26 17:32:00,
2013-02-26 09:42:00,42.0,-99.9,-100.00,WNW,293,5.0,8.0,-999,-99.99,,,-99.99,,2013-02-26 17:42:00,
2013-02-26 09:52:00,43.0,-99.9,-100.00,WSW,252,6.0,9.0,-999,-99.99,,,-99.99,,2013-02-26 17:52:00,
2013-02-26 10:00:00,43.0,-99.9,-100.00,West,273,2.0,7.0,-999,-99.99,,,-99.99,,2013-02-26 18:00:00,
2013-02-26 10:02:00,43.0,-99.9,-100.00,WSW,252,6.0,9.0,-999,-99.99,,,-99.99,,2013-02-26 18:02:00,
2013-02-26 10:32:00,45.0,-99.9,-100.00,WNW,285,6.0,6.0,-999,-99.99,,,-99.99,,2013-02-26 18:32:00,
2013-02-26 10:42:00,45.0,-99.9,-100.00,WNW,285,6.0,6.0,-999,-99.99,,,-99.99,,2013-02-26 18:42:00,
2013-02-26 10:53:00,43.0,-99.9,-100.00,West,273,2.0,7.0,-999,-99.99,,,-99.99,,2013-02-26 18:53:00,
2013-02-26 11:22:00,43.0,-99.9,-100.00,West,266,1.0,4.0,-999,-99.99,,,-99.99,,2013-02-26 19:22:00,
2013-02-26 11:32:00,43.0,-99.9,-100.00,West,266,1.0,4.0,-999,-99.99,,,-99.99,,2013-02-26 19:32:00,
2013-02-26 11:42:00,45.0,-99.9,-100.00,WNW,295,2.0,3.0,-999,-99.99,,,-99.99,,2013-02-26 19:42:00,
2013-02-26 11:52:00,45.0,-99.9,-100.00,ENE,71,0.0,1.0,-999,-99.99,,,-99.99,,2013-02-26 19:52:00,
2013-02-26 12:01:00,48.0,-99.9,-100.00,North,359,0.0,1.0,-999,-99.99,,,-99.99,,2013-02-26 20:01:00,
2013-02-26 12:11:00,48.0,-99.9,-100.00,North,359,0.0,1.0,-999,-99.99,,,-99.99,,2013-02-26 20:11:00,
2013-02-26 12:22:00,48.0,-99.9,-100.00,North,359,0.0,1.0,-999,-99.99,,,-99.99,,2013-02-26 20:22:00,
2013-02-26 14:01:00,45.0,-99.9,-100.00,NW,313,3.0,4.0,-999,-99.99,,,-99.99,,2013-02-26 22:01:00,
2013-02-26 14:11:00,45.0,-99.9,-100.00,NW,313,3.0,4.0,-999,-99.99,,,-99.99,,2013-02-26 22:11:00,
2013-02-26 14:21:00,45.0,-99.9,-100.00,NW,313,3.0,4.0,-999,-99.99,,,-99.99,,2013-02-26 22:21:00,
2013-02-26 14:32:00,48.0,-99.9,-100.00,NNW,342,2.0,5.0,-999,-99.99,,,-99.99,,2013-02-26 22:32:00,
2013-02-26 14:42:00,48.0,-99.9,-100.00,NNW,342,2.0,5.0,-999,-99.99,,,-99.99,,2013-02-26 22:42:00,
2013-02-26 14:52:00,48.0,-99.9,-100.00,NNW,342,2.0,5.0,-999,-99.99,,,-99.99,,2013-02-26 22:52:00,
2013-02-26 15:32:00,47.0,-99.9,-100.00,West,268,6.0,9.0,-999,-99.99,,,-99.99,,2013-02-26 23:32:00,
2013-02-26 15:42:00,47.0,-99.9,-100.00,West,268,6.0,9.0,-999,-99.99,,,-99.99,,2013-02-26 23:42:00,
2013-02-26 15:52:00,47.0,-99.9,-100.00,West,268,6.0,9.0,-999,-99.99,,,-99.99,,2013-02-26 23:52:00,
2013-02-26 16:00:00,47.0,-99.9,-100.00,WNW,283,5.0,7.0,-999,-99.99,,,-99.99,,2013-02-27 00:00:00,
2013-02-26 16:02:00,47.0,-99.9,-100.00,WSW,244,5.0,7.0,-999,-99.99,,,-99.99,,2013-02-27 00:02:00,
2013-02-26 16:11:00,47.0,-99.9,-100.00,WSW,244,5.0,7.0,-999,-99.99,,,-99.99,,2013-02-27 00:11:00,
2013-02-26 16:22:00,47.0,-99.9,-100.00,WSW,255,4.0,5.0,-999,-99.99,,,-99.99,,2013-02-27 00:22:00,
2013-02-26 16:32:00,48.0,-99.9,-100.00,West,262,5.0,7.0,-999,-99.99,,,-99.99,,2013-02-27 00:32:00,
2013-02-26 16:42:00,48.0,-99.9,-100.00,West,262,5.0,7.0,-999,-99.99,,,-99.99,,2013-02-27 00:42:00,
2013-02-26 16:52:00,47.0,-99.9,-100.00,WNW,283,5.0,7.0,-999,-99.99,,,-99.99,,2013-02-27 00:52:00,
2013-02-26 17:32:00,46.0,-99.9,-100.00,SW,222,5.0,12.0,-999,-99.99,,,-99.99,,2013-02-27 01:32:00,
2013-02-26 17:42:00,46.0,-99.9,-100.00,SW,222,5.0,12.0,-999,-99.99,,,-99.99,,2013-02-27 01:42:00,
2013-02-26 17:52:00,46.0,-99.9,-100.00,SW,222,5.0,12.0,-999,-99.99,,,-99.99,,2013-02-27 01:52:00,
2013-02-26 18:42:00,47.0,-99.9,-100.00,NW,308,1.0,2.0,-999,-99.99,,,-99.99,,2013-02-27 02:42:00,
2013-02-26 18:52:00,47.0,-99.9,-100.00,NW,308,1.0,2.0,-999,-99.99,,,-99.99,,2013-02-27 02:52:00,
2013-02-26 19:32:00,45.0,-99.9,-100.00,NW,311,4.0,6.0,-999,-99.99,,,-99.99,,2013-02-27 03:32:00,
2013-02-26 19:42:00,45.0,-99.9,-100.00,NW,311,4.0,6.0,-999,-99.99,,,-99.99,,2013-02-27 03:42:00,
2013-02-26 19:52:00,45.0,-99.9,-100.00,NW,311,4.0,6.0,-999,-99.99,,,-99.99,,2013-02-27 03:52:00,
2013-02-26 20:02:00,44.0,-99.9,-100.00,SW,233,2.0,4.0,-999,-99.99,,,-99.99,,2013-02-27 04:02:00,
2013-02-26 20:12:00,44.0,-99.9,-100.00,SW,233,2.0,4.0,-999,-99.99,,,-99.99,,2013-02-27 04:12:00,
2013-02-26 20:22:00,44.0,-99.9,-100.00,SW,233,2.0,4.0,-999,-99.99,,,-99.99,,2013-02-27 04:22:00,
2013-02-26 20:32:00,43.0,-99.9,-100.00,WSW,241,1.0,4.0,-999,-99.99,,,-99.99,,2013-02-27 04:32:00,
2013-02-26 20:42:00,43.0,-99.9,-100.00,WSW,241,1.0,4.0,-999,-99.99,,,-99.99,,2013-02-27 04:42:00,
2013-02-26 20:52:00,43.0,-99.9,-100.00,WSW,241,1.0,4.0,-999,-99.99,,,-99.99,,2013-02-27 04:52:00,
2013-02-26 21:10:00,43.0,-99.9,-100.00,WSW,253,2.0,3.0,-999,-99.99,,,-99.99,,2013-02-27 05:10:00,
2013-02-26 21:22:00,43.0,-99.9,-100.00,West,269,4.0,7.0,-999,-99.99,,,-99.99,,2013-02-27 05:22:00,
2013-02-26 21:32:00,43.0,-99.9,-100.00,West,275,0.0,2.0,-999,-99.99,,,-99.99,,2013-02-27 05:32:00,
2013-02-26 21:42:00,43.0,-99.9,-100.00,West,275,0.0,2.0,-999,-99.99,,,-99.99,,2013-02-27 05:42:00,
2013-02-26 21:52:00,43.0,-99.9,-100.00,WSW,253,2.0,3.0,-999,-99.99,,,-99.99,,2013-02-27 05:52:00,
2013-02-26 22:02:00,43.0,-99.9,-100.00,WSW,253,2.0,3.0,-999,-99.99,,,-99.99,,2013-02-27 06:02:00,
2013-02-26 22:33:00,44.0,-99.9,-100.00,ENE,76,0.0,2.0,-999,-99.99,,,-99.99,,2013-02-27 06:33:00,
2013-02-26 22:42:00,44.0,-99.9,-100.00,ENE,76,0.0,2.0,-999,-99.99,,,-99.99,,2013-02-27 06:42:00,
2013-02-26 22:52:00,44.0,-99.9,-100.00,ENE,76,0.0,2.0,-999,-99.99,,,-99.99,,2013-02-27 06:52:00,
2013-02-26 23:01:00,43.0,-99.9,-100.00,South,181,1.0,3.0,-999,-99.99,,,-99.99,,2013-02-27 07:01:00,
2013-02-26 23:12:00,43.0,-99.9,-100.00,South,181,1.0,3.0,-999,-99.99,,,-99.99,,2013-02-27 07:12:00,
2013-02-26 23:22:00,43.0,-99.9,-100.00,South,181,1.0,3.0,-999,-99.99,,,-99.99,,2013-02-27 07:22:00,
2013-02-26 23:32:00,40.0,-99.9,-100.00,SSW,199,0.0,3.0,-999,-99.99,,,-99.99,,2013-02-27 07:32:00,
2013-02-26 23:42:00,40.0,-99.9,-100.00,SSW,199,0.0,3.0,-999,-99.99,,,-99.99,,2013-02-27 07:42:00,
2013-02-26 23:52:00,40.0,-99.9,-100.00,SSW,199,0.0,3.0,-999,-99.99,,,-99.99,,2013-02-27 07:52:00,